GAOFEN 8

Last updated on Tue Nov 21 2023 00:02:24 GMT+0000 (Coordinated Universal Time)

1 40701U 15030A 23324.55524179 .00010826 00000+0 45680-3 0 9995 2 40701 97.6299 110.3714 0006667 326.8922 33.1896 15.23454020467722

Satellite not in orbit

GAOFEN 8